| time (UTC) | temp F | wind direction | speed MPH | gust MPH | rain 1hr in | rain 24hr in | rain mn in | humidity % | barometer mb |
| 20260508235846 | 57 | 24 | 12.0 | 17.0 | 0.00 | 0.01 | 0.01 | 74 | 1020.1 |
| 20260508235342 | 57 | 47 | 11.0 | 17.0 | 0.00 | 0.01 | 0.01 | 77 | 1020.2 |
| 20260508234843 | 57 | 21 | 11.0 | 15.0 | 0.00 | 0.01 | 0.01 | 78 | 1020.0 |
| 20260508234343 | 57 | 27 | 9.0 | 21.0 | 0.00 | 0.01 | 0.01 | 78 | 1020.0 |
| 20260508233841 | 57 | 8 | 6.0 | 21.0 | 0.00 | 0.01 | 0.01 | 78 | 1019.9 |
| 20260508233343 | 57 | 34 | 5.0 | 17.0 | 0.00 | 0.01 | 0.01 | 78 | 1020.1 |
| 20260508233206 | 57 | 337 | 10.0 | 18.0 | 0.00 | 0.01 | 0.01 | 78 | 1020.0 |
| 20260508232342 | 57 | 36 | 12.0 | 18.0 | 0.00 | 0.01 | 0.01 | 78 | 1020.1 |
| 20260508231837 | 57 | 13 | 12.0 | 22.0 | 0.00 | 0.01 | 0.01 | 78 | 1020.2 |
| 20260508231336 | 57 | 31 | 11.0 | 22.0 | 0.00 | 0.01 | 0.01 | 77 | 1020.2 |
| 20260508231154 | 57 | 36 | 11.0 | 22.0 | 0.00 | 0.01 | 0.01 | 77 | 1020.2 |
| 20260508230334 | 57 | 27 | 10.0 | 26.0 | 0.00 | 0.01 | 0.01 | 80 | 1020.1 |
| 20260508225835 | 58 | 18 | 16.0 | 26.0 | 0.00 | 0.01 | 0.01 | 79 | 1019.9 |
| 20260508225332 | 58 | 18 | 12.0 | 22.0 | 0.00 | 0.01 | 0.01 | 76 | 1019.8 |
| 20260508224830 | 58 | 24 | 15.0 | 22.0 | 0.00 | 0.01 | 0.01 | 76 | 1019.8 |
| 20260508224331 | 58 | 36 | 10.0 | 23.0 | 0.00 | 0.01 | 0.01 | 77 | 1019.9 |
| 20260508223832 | 58 | 30 | 17.0 | 23.0 | 0.00 | 0.01 | 0.01 | 76 | 1019.9 |
| 20260508223331 | 58 | 14 | 12.0 | 22.0 | 0.00 | 0.01 | 0.01 | 77 | 1019.8 |
| 20260508222831 | 57 | 30 | 15.0 | 22.0 | 0.00 | 0.01 | 0.01 | 78 | 1019.8 |
| 20260508222330 | 57 | 30 | 8.0 | 20.0 | 0.00 | 0.01 | 0.01 | 80 | 1019.7 |
| 20260508221828 | 57 | 17 | 10.0 | 26.0 | 0.00 | 0.01 | 0.01 | 80 | 1019.6 |
| 20260508221328 | 57 | 30 | 13.0 | 26.0 | 0.00 | 0.01 | 0.01 | 80 | 1019.5 |
| 20260508220827 | 57 | 30 | 11.0 | 26.0 | 0.00 | 0.01 | 0.01 | 80 | 1019.5 |
| 20260508220326 | 58 | 0 | 10.0 | 19.0 | 0.00 | 0.01 | 0.01 | 78 | 1019.4 |
| 20260508215824 | 58 | 356 | 11.0 | 21.0 | 0.00 | 0.01 | 0.01 | 78 | 1019.3 |
| 20260508215319 | 58 | 1 | 14.0 | 21.0 | 0.00 | 0.01 | 0.01 | 78 | 1019.3 |
| 20260508214820 | 58 | 30 | 7.0 | 15.0 | 0.00 | 0.01 | 0.01 | 76 | 1019.2 |
| 20260508214633 | 58 | 6 | 10.0 | 18.0 | 0.00 | 0.01 | 0.01 | 76 | 1019.2 |
| 20260508213814 | 58 | 357 | 12.0 | 18.0 | 0.00 | 0.01 | 0.01 | 77 | 1019.3 |
| 20260508213309 | 58 | 13 | 11.0 | 18.0 | 0.00 | 0.01 | 0.01 | 78 | 1019.2 |
| 20260508212803 | 58 | 353 | 12.0 | 18.0 | 0.00 | 0.01 | 0.01 | 78 | 1019.1 |
| 20260508212307 | 58 | 336 | 7.0 | 19.0 | 0.00 | 0.01 | 0.01 | 78 | 1019.1 |
| 20260508211806 | 58 | 18 | 8.0 | 19.0 | 0.00 | 0.01 | 0.01 | 78 | 1019.0 |
| 20260508211621 | 58 | 351 | 9.0 | 17.0 | 0.00 | 0.01 | 0.01 | 78 | 1018.9 |
| 20260508210806 | 58 | 347 | 11.0 | 19.0 | 0.00 | 0.01 | 0.01 | 78 | 1018.9 |
| 20260508210304 | 58 | 30 | 13.0 | 19.0 | 0.00 | 0.01 | 0.01 | 78 | 1018.7 |
| 20260508205804 | 58 | 336 | 8.0 | 19.0 | 0.00 | 0.01 | 0.01 | 78 | 1018.7 |
| 20260508205259 | 58 | 30 | 9.0 | 20.0 | 0.00 | 0.01 | 0.01 | 78 | 1018.6 |
| 20260508204752 | 58 | 346 | 12.0 | 20.0 | 0.00 | 0.01 | 0.01 | 79 | 1018.7 |
| 20260508204249 | 59 | 15 | 8.0 | 17.0 | 0.00 | 0.01 | 0.01 | 78 | 1018.6 |
| 20260508203747 | 59 | 30 | 9.0 | 17.0 | 0.00 | 0.01 | 0.01 | 78 | 1018.6 |
| 20260508203246 | 59 | 336 | 10.0 | 19.0 | 0.00 | 0.01 | 0.01 | 78 | 1018.5 |
| 20260508203057 | 59 | 30 | 13.0 | 19.0 | 0.00 | 0.01 | 0.01 | 78 | 1018.4 |
| 20260508202245 | 59 | 17 | 10.0 | 16.0 | 0.00 | 0.01 | 0.01 | 79 | 1018.3 |
| 20260508201740 | 59 | 4 | 9.0 | 16.0 | 0.00 | 0.01 | 0.01 | 79 | 1018.3 |
| 20260508201239 | 59 | 33 | 7.0 | 16.0 | 0.00 | 0.01 | 0.01 | 79 | 1018.2 |
| 20260508200738 | 59 | 3 | 11.0 | 16.0 | 0.00 | 0.01 | 0.01 | 79 | 1018.1 |
| 20260508200252 | 59 | 30 | 8.0 | 14.0 | 0.00 | 0.01 | 0.01 | 79 | 1018.1 |
| 20260508195737 | 59 | 346 | 9.0 | 19.0 | 0.00 | 0.01 | 0.01 | 79 | 1018.1 |
| 20260508195238 | 59 | 30 | 13.0 | 22.0 | 0.00 | 0.01 | 0.01 | 79 | 1017.9 |
| 20260508194737 | 59 | 7 | 12.0 | 22.0 | 0.00 | 0.01 | 0.01 | 78 | 1018.1 |
| 20260508194237 | 59 | 27 | 13.0 | 20.0 | 0.00 | 0.02 | 0.01 | 78 | 1018.1 |
| 20260508194059 | 59 | 7 | 14.0 | 20.0 | 0.00 | 0.02 | 0.01 | 78 | 1018.0 |
| 20260508193234 | 60 | 30 | 10.0 | 16.0 | 0.00 | 0.03 | 0.01 | 79 | 1017.9 |
| 20260508192734 | 60 | 30 | 4.0 | 13.0 | 0.00 | 0.05 | 0.01 | 80 | 1018.0 |
| 20260508192234 | 60 | 23 | 9.0 | 14.0 | 0.00 | 0.05 | 0.01 | 80 | 1017.9 |
| 20260508191733 | 60 | 340 | 6.0 | 20.0 | 0.00 | 0.05 | 0.01 | 80 | 1017.9 |
| 20260508191555 | 60 | 30 | 11.0 | 23.0 | 0.00 | 0.05 | 0.01 | 79 | 1017.9 |
| 20260508190734 | 60 | 351 | 13.0 | 23.0 | 0.00 | 0.05 | 0.01 | 79 | 1017.9 |
| 20260508190234 | 60 | 40 | 7.0 | 16.0 | 0.00 | 0.05 | 0.01 | 79 | 1018.0 |
| 20260508185733 | 60 | 30 | 10.0 | 21.0 | 0.00 | 0.05 | 0.01 | 78 | 1017.9 |
| 20260508185233 | 60 | 30 | 14.0 | 21.0 | 0.00 | 0.05 | 0.01 | 78 | 1017.8 |
| 20260508185056 | 60 | 30 | 10.0 | 20.0 | 0.00 | 0.05 | 0.01 | 80 | 1018.0 |
| 20260508184233 | 60 | 11 | 12.0 | 21.0 | 0.00 | 0.05 | 0.01 | 80 | 1017.9 |
| 20260508183739 | 60 | 17 | 10.0 | 21.0 | 0.00 | 0.05 | 0.01 | 80 | 1017.9 |
| 20260508183233 | 60 | 30 | 12.0 | 19.0 | 0.00 | 0.05 | 0.01 | 80 | 1018.0 |
| 20260508182731 | 60 | 11 | 13.0 | 21.0 | 0.00 | 0.05 | 0.01 | 79 | 1018.0 |
| 20260508182539 | 60 | 342 | 6.0 | 21.0 | 0.00 | 0.05 | 0.01 | 80 | 1017.9 |
| 20260508182046 | 60 | 23 | 9.0 | 20.0 | 0.00 | 0.05 | 0.01 | 79 | 1017.8 |
| 20260508181229 | 60 | 315 | 10.0 | 23.0 | 0.00 | 0.05 | 0.01 | 79 | 1017.9 |
| 20260508180729 | 60 | 342 | 15.0 | 23.0 | 0.00 | 0.05 | 0.01 | 79 | 1017.8 |
| 20260508180544 | 60 | 354 | 11.0 | 19.0 | 0.00 | 0.05 | 0.01 | 80 | 1017.8 |
| 20260508175722 | 60 | 38 | 9.0 | 24.0 | 0.00 | 0.05 | 0.01 | 79 | 1017.7 |
| 20260508175220 | 60 | 20 | 15.0 | 24.0 | 0.00 | 0.05 | 0.01 | 79 | 1017.7 |
| 20260508174719 | 60 | 18 | 12.0 | 22.0 | 0.00 | 0.05 | 0.01 | 80 | 1017.6 |
| 20260508174217 | 60 | 14 | 12.0 | 20.0 | 0.00 | 0.05 | 0.01 | 80 | 1017.6 |
| 20260508173711 | 60 | 25 | 15.0 | 20.0 | 0.00 | 0.05 | 0.01 | 80 | 1017.6 |
| 20260508173213 | 60 | 33 | 13.0 | 20.0 | 0.00 | 0.05 | 0.01 | 81 | 1017.5 |
| 20260508172707 | 60 | 30 | 10.0 | 17.0 | 0.00 | 0.05 | 0.01 | 82 | 1017.6 |
| 20260508172206 | 60 | 34 | 9.0 | 15.0 | 0.00 | 0.05 | 0.01 | 83 | 1017.6 |
| 20260508171709 | 60 | 15 | 6.0 | 22.0 | 0.00 | 0.05 | 0.01 | 82 | 1017.7 |
| 20260508171206 | 60 | 4 | 11.0 | 22.0 | 0.00 | 0.05 | 0.01 | 81 | 1017.7 |
| 20260508170707 | 61 | 15 | 13.0 | 20.0 | 0.00 | 0.05 | 0.01 | 78 | 1017.7 |
| 20260508170205 | 61 | 6 | 14.0 | 21.0 | 0.00 | 0.05 | 0.01 | 78 | 1017.6 |
| 20260508165705 | 61 | 6 | 7.0 | 21.0 | 0.00 | 0.05 | 0.01 | 78 | 1017.5 |
| 20260508165526 | 61 | 14 | 15.0 | 21.0 | 0.00 | 0.05 | 0.01 | 77 | 1017.6 |
| 20260508164706 | 62 | 21 | 10.0 | 17.0 | 0.00 | 0.05 | 0.01 | 76 | 1017.6 |
| 20260508164203 | 62 | 24 | 13.0 | 22.0 | 0.00 | 0.05 | 0.01 | 76 | 1017.6 |
| 20260508163703 | 62 | 339 | 10.0 | 22.0 | 0.00 | 0.05 | 0.01 | 75 | 1017.7 |
| 20260508163528 | 62 | 357 | 12.0 | 20.0 | 0.00 | 0.05 | 0.01 | 76 | 1017.8 |
| 20260508162704 | 62 | 47 | 13.0 | 21.0 | 0.00 | 0.05 | 0.01 | 76 | 1017.8 |
| 20260508162516 | 62 | 4 | 12.0 | 21.0 | 0.00 | 0.05 | 0.01 | 77 | 1017.8 |
| 20260508161703 | 62 | 347 | 12.0 | 23.0 | 0.00 | 0.05 | 0.01 | 77 | 1017.7 |
| 20260508161204 | 62 | 13 | 15.0 | 23.0 | 0.00 | 0.05 | 0.01 | 75 | 1017.6 |
| 20260508160702 | 62 | 30 | 12.0 | 21.0 | 0.00 | 0.05 | 0.01 | 76 | 1017.6 |
| 20260508160157 | 62 | 330 | 12.0 | 22.0 | 0.00 | 0.05 | 0.01 | 77 | 1017.6 |
| 20260508155657 | 61 | 30 | 12.0 | 22.0 | 0.00 | 0.05 | 0.01 | 78 | 1017.7 |
| 20260508155156 | 61 | 328 | 9.0 | 20.0 | 0.00 | 0.05 | 0.01 | 80 | 1017.8 |
| 20260508154652 | 61 | 30 | 15.0 | 20.0 | 0.00 | 0.05 | 0.01 | 79 | 1017.7 |
| 20260508154147 | 61 | 18 | 11.0 | 22.0 | 0.00 | 0.05 | 0.01 | 80 | 1017.7 |
| 20260508153645 | 60 | 357 | 10.0 | 22.0 | 0.00 | 0.05 | 0.01 | 81 | 1017.7 |
| 20260508153146 | 60 | 343 | 15.0 | 22.0 | 0.00 | 0.05 | 0.01 | 80 | 1017.7 |
| 20260508152643 | 60 | 339 | 11.0 | 22.0 | 0.00 | 0.05 | 0.01 | 80 | 1017.8 |
| 20260508152143 | 60 | 8 | 15.0 | 21.0 | 0.00 | 0.05 | 0.01 | 82 | 1017.8 |
| 20260508151643 | 60 | 339 | 10.0 | 19.0 | 0.00 | 0.05 | 0.01 | 83 | 1017.6 |
| 20260508151140 | 59 | 344 | 14.0 | 22.0 | 0.00 | 0.05 | 0.01 | 82 | 1017.6 |
| 20260508150640 | 60 | 10 | 14.0 | 22.0 | 0.00 | 0.05 | 0.01 | 80 | 1017.7 |
| 20260508150136 | 62 | 344 | 13.0 | 21.0 | 0.00 | 0.05 | 0.01 | 79 | 1017.7 |
| 20260508145959 | 62 | 28 | 7.0 | 19.0 | 0.00 | 0.05 | 0.01 | 79 | 1017.5 |
| 20260508145134 | 62 | 30 | 13.0 | 19.0 | 0.01 | 0.05 | 0.01 | 77 | 1017.4 |
| 20260508144631 | 62 | 30 | 10.0 | 18.0 | 0.01 | 0.05 | 0.01 | 78 | 1017.4 |
| 20260508144132 | 62 | 30 | 12.0 | 22.0 | 0.01 | 0.05 | 0.01 | 79 | 1017.5 |
| 20260508143631 | 62 | 1 | 9.0 | 22.0 | 0.01 | 0.05 | 0.01 | 80 | 1017.4 |
| 20260508143131 | 62 | 30 | 14.0 | 20.0 | 0.01 | 0.05 | 0.01 | 80 | 1017.4 |
| 20260508142631 | 61 | 28 | 13.0 | 19.0 | 0.01 | 0.05 | 0.01 | 80 | 1017.4 |
| 20260508142449 | 60 | 34 | 7.0 | 14.0 | 0.01 | 0.05 | 0.01 | 83 | 1017.5 |
| 20260508141645 | 60 | 30 | 10.0 | 18.0 | 0.01 | 0.05 | 0.01 | 83 | 1017.4 |
| 20260508141131 | 59 | 18 | 8.0 | 18.0 | 0.01 | 0.06 | 0.01 | 83 | 1017.6 |
| 20260508140633 | 59 | 337 | 9.0 | 19.0 | 0.01 | 0.06 | 0.01 | 84 | 1017.7 |
| 20260508140132 | 59 | 306 | 9.0 | 19.0 | 0.01 | 0.06 | 0.01 | 84 | 1017.7 |
| 20260508135633 | 59 | 18 | 11.0 | 17.0 | 0.01 | 0.06 | 0.01 | 83 | 1017.6 |
| 20260508135132 | 60 | 13 | 10.0 | 16.0 | 0.00 | 0.07 | 0.00 | 81 | 1017.6 |
| 20260508134632 | 61 | 353 | 10.0 | 16.0 | 0.00 | 0.10 | 0.00 | 80 | 1017.5 |
| 20260508134128 | 62 | 48 | 7.0 | 16.0 | 0.00 | 0.11 | 0.00 | 78 | 1017.5 |
| 20260508133628 | 62 | 17 | 10.0 | 19.0 | 0.00 | 0.11 | 0.00 | 76 | 1017.3 |
| 20260508133129 | 62 | 38 | 13.0 | 19.0 | 0.00 | 0.11 | 0.00 | 76 | 1017.4 |
| 20260508132630 | 62 | 11 | 12.0 | 20.0 | 0.00 | 0.12 | 0.00 | 77 | 1017.3 |
| 20260508132129 | 62 | 356 | 12.0 | 20.0 | 0.00 | 0.12 | 0.00 | 74 | 1017.3 |
| 20260508131631 | 62 | 30 | 9.0 | 22.0 | 0.00 | 0.12 | 0.00 | 76 | 1017.3 |
| 20260508131127 | 63 | 20 | 11.0 | 24.0 | 0.00 | 0.12 | 0.00 | 76 | 1017.4 |
| 20260508130627 | 63 | 30 | 17.0 | 29.0 | 0.00 | 0.12 | 0.00 | 74 | 1017.4 |
| 20260508130127 | 62 | 349 | 12.0 | 29.0 | 0.00 | 0.15 | 0.00 | 73 | 1017.4 |
| 20260508125627 | 62 | 17 | 13.0 | 22.0 | 0.00 | 0.17 | 0.00 | 76 | 1017.4 |
| 20260508125126 | 62 | 25 | 15.0 | 29.0 | 0.00 | 0.17 | 0.00 | 77 | 1017.4 |
| 20260508124626 | 62 | 354 | 10.0 | 29.0 | 0.00 | 0.17 | 0.00 | 77 | 1017.5 |
| 20260508124125 | 61 | 30 | 17.0 | 26.0 | 0.00 | 0.17 | 0.00 | 76 | 1017.4 |
| 20260508123626 | 62 | 30 | 13.0 | 24.0 | 0.00 | 0.17 | 0.00 | 76 | 1017.4 |
| 20260508123448 | 62 | 21 | 11.0 | 22.0 | 0.00 | 0.17 | 0.00 | 76 | 1017.4 |
| 20260508122947 | 62 | 30 | 14.0 | 22.0 | 0.00 | 0.17 | 0.00 | 76 | 1017.5 |
| 20260508122241 | 62 | 354 | 11.0 | 21.0 | 0.00 | 0.17 | 0.00 | 78 | 1017.4 |
| 20260508121124 | 62 | 30 | 12.0 | 23.0 | 0.00 | 0.17 | 0.00 | 78 | 1017.2 |
| 20260508120624 | 61 | 30 | 12.0 | 23.0 | 0.00 | 0.17 | 0.00 | 77 | 1017.2 |
| 20260508120121 | 61 | 339 | 10.0 | 23.0 | 0.00 | 0.17 | 0.00 | 78 | 1017.3 |
| 20260508115619 | 61 | 10 | 17.0 | 23.0 | 0.00 | 0.17 | 0.00 | 78 | 1017.2 |
| 20260508115117 | 61 | 17 | 7.0 | 18.0 | 0.00 | 0.17 | 0.00 | 80 | 1017.1 |
| 20260508114617 | 61 | 40 | 10.0 | 18.0 | 0.00 | 0.17 | 0.00 | 80 | 1017.1 |
| 20260508114114 | 61 | 30 | 7.0 | 18.0 | 0.00 | 0.17 | 0.00 | 79 | 1017.2 |
| 20260508113619 | 61 | 1 | 9.0 | 18.0 | 0.00 | 0.17 | 0.00 | 77 | 1017.0 |
| 20260508113111 | 62 | 53 | 13.0 | 19.0 | 0.00 | 0.17 | 0.00 | 76 | 1017.0 |
| 20260508112611 | 62 | 27 | 14.0 | 19.0 | 0.00 | 0.17 | 0.00 | 76 | 1017.0 |
| 20260508112107 | 62 | 44 | 10.0 | 22.0 | 0.00 | 0.17 | 0.00 | 77 | 1017.0 |
| 20260508111724 | 61 | 30 | 13.0 | 24.0 | 0.00 | 0.17 | 0.00 | 77 | 1017.0 |
| 20260508110605 | 61 | 30 | 8.0 | 20.0 | 0.00 | 0.17 | 0.00 | 78 | 1016.8 |
| 20260508110108 | 61 | 60 | 11.0 | 20.0 | 0.00 | 0.17 | 0.00 | 79 | 1016.8 |
| 20260508105604 | 61 | 37 | 11.0 | 19.0 | 0.00 | 0.17 | 0.00 | 79 | 1016.8 |
| 20260508105104 | 61 | 30 | 11.0 | 19.0 | 0.00 | 0.17 | 0.00 | 79 | 1016.8 |
| 20260508104602 | 61 | 30 | 10.0 | 21.0 | 0.00 | 0.17 | 0.00 | 79 | 1017.0 |
| 20260508104103 | 60 | 36 | 12.0 | 21.0 | 0.00 | 0.17 | 0.00 | 79 | 1016.8 |
| 20260508103603 | 60 | 6 | 12.0 | 30.0 | 0.00 | 0.17 | 0.00 | 79 | 1016.8 |
| 20260508103105 | 60 | 46 | 12.0 | 30.0 | 0.00 | 0.17 | 0.00 | 78 | 1016.7 |
| 20260508102603 | 60 | 339 | 9.0 | 20.0 | 0.00 | 0.17 | 0.00 | 78 | 1016.8 |
| 20260508102101 | 60 | 33 | 15.0 | 20.0 | 0.00 | 0.17 | 0.00 | 78 | 1016.6 |
| 20260508101557 | 61 | 7 | 8.0 | 19.0 | 0.00 | 0.17 | 0.00 | 79 | 1016.6 |
| 20260508101059 | 61 | 8 | 9.0 | 24.0 | 0.00 | 0.17 | 0.00 | 77 | 1016.5 |
| 20260508100708 | 61 | 17 | 18.0 | 29.0 | 0.00 | 0.17 | 0.00 | 77 | 1016.4 |
| 20260508095548 | 61 | 38 | 11.0 | 23.0 | 0.00 | 0.17 | 0.00 | 77 | 1016.4 |
| 20260508095045 | 61 | 30 | 12.0 | 23.0 | 0.00 | 0.17 | 0.00 | 76 | 1016.4 |
| 20260508094544 | 61 | 353 | 6.0 | 20.0 | 0.00 | 0.17 | 0.00 | 78 | 1016.4 |
| 20260508094044 | 60 | 30 | 9.0 | 20.0 | 0.00 | 0.17 | 0.00 | 78 | 1016.4 |
| 20260508093544 | 60 | 48 | 11.0 | 22.0 | 0.00 | 0.17 | 0.00 | 79 | 1016.3 |
| 20260508093042 | 60 | 27 | 14.0 | 22.0 | 0.00 | 0.17 | 0.00 | 78 | 1016.2 |
| 20260508092541 | 60 | 27 | 13.0 | 23.0 | 0.00 | 0.17 | 0.00 | 78 | 1016.1 |
| 20260508092035 | 60 | 344 | 15.0 | 23.0 | 0.00 | 0.17 | 0.00 | 77 | 1016.0 |
| 20260508091532 | 60 | 40 | 10.0 | 18.0 | 0.00 | 0.17 | 0.00 | 79 | 1015.9 |
| 20260508091033 | 60 | 36 | 7.0 | 19.0 | 0.00 | 0.17 | 0.00 | 79 | 1016.0 |
| 20260508090532 | 60 | 48 | 11.0 | 22.0 | 0.00 | 0.17 | 0.00 | 79 | 1015.8 |
| 20260508090033 | 60 | 30 | 11.0 | 22.0 | 0.00 | 0.17 | 0.00 | 80 | 1015.7 |
| 20260508085531 | 60 | 357 | 11.0 | 19.0 | 0.00 | 0.17 | 0.00 | 80 | 1015.8 |
| 20260508085023 | 60 | 43 | 12.0 | 19.0 | 0.00 | 0.17 | 0.00 | 80 | 1015.7 |
| 20260508084523 | 60 | 30 | 11.0 | 19.0 | 0.00 | 0.17 | 0.00 | 80 | 1015.6 |
| 20260508084019 | 60 | 34 | 6.0 | 22.0 | 0.00 | 0.17 | 0.00 | 80 | 1015.6 |
| 20260508083520 | 60 | 4 | 13.0 | 22.0 | 0.00 | 0.17 | 0.00 | 80 | 1015.4 |
| 20260508083020 | 60 | 24 | 11.0 | 20.0 | 0.00 | 0.17 | 0.00 | 80 | 1015.3 |
| 20260508082848 | 60 | 30 | 13.0 | 20.0 | 0.00 | 0.17 | 0.00 | 80 | 1015.2 |
| 20260508082020 | 59 | 27 | 14.0 | 20.0 | 0.00 | 0.17 | 0.00 | 82 | 1015.1 |
| 20260508081841 | 59 | 30 | 10.0 | 20.0 | 0.00 | 0.17 | 0.00 | 82 | 1015.1 |
| 20260508081019 | 59 | 7 | 9.0 | 22.0 | 0.00 | 0.17 | 0.00 | 82 | 1015.2 |
| 20260508080521 | 59 | 37 | 13.0 | 28.0 | 0.00 | 0.17 | 0.00 | 82 | 1015.1 |
| 20260508080020 | 59 | 350 | 11.0 | 28.0 | 0.00 | 0.17 | 0.00 | 82 | 1015.0 |
| 20260508075514 | 59 | 30 | 14.0 | 28.0 | 0.00 | 0.17 | 0.00 | 82 | 1014.9 |
| 20260508075337 | 59 | 36 | 10.0 | 24.0 | 0.00 | 0.17 | 0.00 | 82 | 1014.9 |
| 20260508074515 | 59 | 31 | 7.0 | 26.0 | 0.00 | 0.17 | 0.00 | 82 | 1014.8 |
| 20260508074011 | 59 | 6 | 16.0 | 26.0 | 0.00 | 0.17 | 0.00 | 83 | 1014.8 |
| 20260508073509 | 59 | 357 | 8.0 | 21.0 | 0.00 | 0.17 | 0.00 | 83 | 1014.7 |
| 20260508073005 | 58 | 359 | 6.0 | 28.0 | 0.00 | 0.17 | 0.00 | 83 | 1014.6 |
| 20260508072506 | 58 | 351 | 16.0 | 28.0 | 0.00 | 0.17 | 0.00 | 83 | 1014.5 |
| 20260508072333 | 58 | 322 | 9.0 | 20.0 | 0.00 | 0.17 | 0.00 | 83 | 1014.4 |
| 20260508071505 | 58 | 10 | 10.0 | 20.0 | 0.00 | 0.17 | 0.00 | 84 | 1014.3 |
| 20260508071002 | 58 | 354 | 9.0 | 21.0 | 0.00 | 0.17 | 0.00 | 84 | 1014.2 |
| 20260508070504 | 58 | 289 | 13.0 | 21.0 | 0.00 | 0.17 | 0.00 | 84 | 1014.2 |
| 20260508070004 | 58 | 359 | 9.0 | 20.0 | 0.00 | 0.17 | 0.00 | 84 | 1014.1 |
| 20260508065502 | 57 | 7 | 7.0 | 19.0 | 0.00 | 0.17 | 0.00 | 84 | 1014.1 |
| 20260508064957 | 57 | 308 | 3.0 | 19.0 | 0.00 | 0.17 | 0.00 | 84 | 1014.1 |
| 20260508064449 | 57 | 30 | 13.0 | 19.0 | 0.00 | 0.17 | 0.00 | 84 | 1014.0 |
| 20260508063947 | 57 | 38 | 8.0 | 15.0 | 0.00 | 0.17 | 0.00 | 83 | 1014.0 |
| 20260508063444 | 57 | 11 | 6.0 | 18.0 | 0.00 | 0.17 | 0.00 | 83 | 1013.9 |
| 20260508062944 | 58 | 342 | 12.0 | 18.0 | 0.00 | 0.17 | 0.00 | 84 | 1013.9 |
| 20260508062440 | 58 | 15 | 6.0 | 21.0 | 0.00 | 0.17 | 0.00 | 84 | 1014.0 |
| 20260508061938 | 57 | 318 | 13.0 | 22.0 | 0.00 | 0.17 | 0.00 | 84 | 1013.8 |
| 20260508061439 | 58 | 323 | 13.0 | 22.0 | 0.00 | 0.17 | 0.00 | 83 | 1013.8 |
| 20260508061328 | 58 | 356 | 11.0 | 19.0 | 0.00 | 0.17 | 0.00 | 82 | 1013.9 |
| 20260508060752 | 58 | 343 | 11.0 | 17.0 | 0.00 | 0.17 | 0.00 | 81 | 1013.8 |
| 20260508060304 | 58 | 13 | 7.0 | 22.0 | 0.00 | 0.17 | 0.00 | 82 | 1013.5 |
| 20260508055754 | 58 | 335 | 3.0 | 22.0 | 0.00 | 0.17 | 0.00 | 82 | 1013.4 |
| 20260508054934 | 58 | 342 | 7.0 | 22.0 | 0.00 | 0.17 | 0.00 | 82 | 1013.4 |
| 20260508054433 | 58 | 356 | 13.0 | 28.0 | 0.00 | 0.17 | 0.00 | 83 | 1013.5 |
| 20260508053926 | 58 | 15 | 12.0 | 28.0 | 0.00 | 0.17 | 0.00 | 83 | 1013.4 |
| 20260508053425 | 58 | 340 | 8.0 | 27.0 | 0.00 | 0.17 | 0.00 | 83 | 1013.3 |
| 20260508052921 | 58 | 18 | 13.0 | 27.0 | 0.00 | 0.17 | 0.00 | 83 | 1013.3 |
| 20260508052418 | 58 | 8 | 14.0 | 26.0 | 0.00 | 0.17 | 0.00 | 84 | 1013.3 |
| 20260508051918 | 58 | 354 | 14.0 | 23.0 | 0.00 | 0.17 | 0.00 | 85 | 1013.1 |
| 20260508051431 | 57 | 28 | 10.0 | 22.0 | 0.00 | 0.17 | 0.00 | 85 | 1013.2 |
| 20260508050918 | 57 | 7 | 13.0 | 23.0 | 0.00 | 0.17 | 0.00 | 85 | 1013.2 |
| 20260508050415 | 57 | 6 | 11.0 | 23.0 | 0.00 | 0.17 | 0.00 | 84 | 1013.2 |
| 20260508050255 | 57 | 44 | 15.0 | 26.0 | 0.00 | 0.17 | 0.00 | 84 | 1013.2 |
| 20260508045411 | 58 | 357 | 17.0 | 28.0 | 0.00 | 0.17 | 0.00 | 83 | 1013.1 |
| 20260508045248 | 58 | 13 | 16.0 | 28.0 | 0.00 | 0.17 | 0.00 | 82 | 1013.0 |
| 20260508044407 | 58 | 353 | 11.0 | 23.0 | 0.00 | 0.17 | 0.00 | 82 | 1013.0 |
| 20260508043908 | 58 | 343 | 16.0 | 30.0 | 0.00 | 0.17 | 0.00 | 83 | 1012.8 |
| 20260508043405 | 58 | 15 | 12.0 | 30.0 | 0.00 | 0.17 | 0.00 | 83 | 1012.7 |
| 20260508042902 | 57 | 353 | 19.0 | 29.0 | 0.00 | 0.17 | 0.00 | 83 | 1012.7 |
| 20260508042402 | 57 | 347 | 17.0 | 31.0 | 0.00 | 0.17 | 0.00 | 83 | 1012.8 |
| 20260508041903 | 57 | 13 | 22.0 | 31.0 | 0.00 | 0.17 | 0.00 | 81 | 1012.7 |
| 20260508041404 | 57 | 342 | 14.0 | 30.0 | 0.00 | 0.17 | 0.00 | 81 | 1012.9 |
| 20260508040902 | 57 | 15 | 13.0 | 30.0 | 0.00 | 0.17 | 0.00 | 81 | 1012.8 |
| 20260508040356 | 57 | 13 | 16.0 | 27.0 | 0.00 | 0.17 | 0.00 | 81 | 1012.9 |
| 20260508040218 | 58 | 312 | 7.0 | 23.0 | 0.00 | 0.17 | 0.00 | 79 | 1012.9 |
| 20260508035356 | 58 | 15 | 9.0 | 23.0 | 0.00 | 0.17 | 0.00 | 79 | 1012.9 |
| 20260508034855 | 57 | 1 | 7.0 | 21.0 | 0.00 | 0.17 | 0.00 | 79 | 1012.9 |
| 20260508034715 | 57 | 31 | 10.0 | 21.0 | 0.00 | 0.17 | 0.00 | 78 | 1012.8 |
| 20260508033850 | 57 | 18 | 10.0 | 16.0 | 0.00 | 0.17 | 0.00 | 78 | 1012.9 |
| 20260508033349 | 57 | 356 | 8.0 | 17.0 | 0.00 | 0.17 | 0.00 | 78 | 1012.9 |
| 20260508032844 | 57 | 14 | 9.0 | 22.0 | 0.00 | 0.17 | 0.00 | 77 | 1013.0 |
| 20260508032708 | 57 | 359 | 15.0 | 22.0 | 0.00 | 0.17 | 0.00 | 77 | 1013.1 |
| 20260508031843 | 57 | 350 | 11.0 | 18.0 | 0.00 | 0.17 | 0.00 | 77 | 1013.0 |
| 20260508031340 | 57 | 291 | 8.0 | 20.0 | 0.00 | 0.17 | 0.00 | 77 | 1013.0 |
| 20260508030842 | 57 | 336 | 12.0 | 26.0 | 0.00 | 0.17 | 0.00 | 77 | 1013.2 |
| 20260508030340 | 57 | 347 | 15.0 | 26.0 | 0.00 | 0.17 | 0.00 | 76 | 1013.5 |
| 20260508025838 | 57 | 342 | 11.0 | 23.0 | 0.00 | 0.17 | 0.00 | 76 | 1013.4 |
| 20260508025337 | 57 | 353 | 5.0 | 16.0 | 0.00 | 0.17 | 0.00 | 76 | 1013.5 |
| 20260508024835 | 57 | 8 | 6.0 | 14.0 | 0.00 | 0.17 | 0.00 | 76 | 1013.5 |
| 20260508024335 | 57 | 351 | 7.0 | 16.0 | 0.00 | 0.17 | 0.00 | 76 | 1013.6 |
| 20260508023832 | 57 | 342 | 4.0 | 16.0 | 0.00 | 0.17 | 0.00 | 76 | 1013.7 |
| 20260508023655 | 57 | 239 | 5.0 | 16.0 | 0.00 | 0.17 | 0.00 | 76 | 1013.7 |
| 20260508022834 | 57 | 8 | 9.0 | 16.0 | 0.00 | 0.17 | 0.00 | 77 | 1013.7 |
| 20260508022333 | 57 | 257 | 6.0 | 23.0 | 0.00 | 0.17 | 0.00 | 77 | 1013.7 |
| 20260508021832 | 57 | 312 | 11.0 | 23.0 | 0.00 | 0.17 | 0.00 | 77 | 1013.7 |
| 20260508021333 | 57 | 349 | 15.0 | 22.0 | 0.00 | 0.17 | 0.00 | 78 | 1013.5 |
| 20260508021146 | 57 | 335 | 11.0 | 26.0 | 0.00 | 0.17 | 0.00 | 78 | 1013.6 |
| 20260508020333 | 57 | 38 | 11.0 | 26.0 | 0.00 | 0.17 | 0.00 | 78 | 1013.5 |
| 20260508015833 | 57 | 27 | 14.0 | 24.0 | 0.00 | 0.17 | 0.00 | 79 | 1013.5 |
| 20260508015331 | 57 | 349 | 15.0 | 27.0 | 0.00 | 0.17 | 0.00 | 80 | 1013.7 |
| 20260508014834 | 57 | 351 | 14.0 | 27.0 | 0.00 | 0.17 | 0.00 | 80 | 1013.9 |
| 20260508014331 | 57 | 6 | 11.0 | 23.0 | 0.00 | 0.17 | 0.00 | 79 | 1014.0 |
| 20260508013831 | 57 | 15 | 15.0 | 24.0 | 0.00 | 0.17 | 0.00 | 78 | 1013.8 |
| 20260508013650 | 57 | 337 | 13.0 | 24.0 | 0.00 | 0.17 | 0.00 | 77 | 1013.9 |
| 20260508012826 | 57 | 11 | 9.0 | 20.0 | 0.00 | 0.17 | 0.00 | 77 | 1014.1 |
| 20260508012322 | 57 | 337 | 11.0 | 20.0 | 0.00 | 0.17 | 0.00 | 76 | 1014.0 |
| 20260508012148 | 57 | 0 | 12.0 | 20.0 | 0.00 | 0.17 | 0.00 | 75 | 1014.1 |
| 20260508011323 | 57 | 351 | 15.0 | 19.0 | 0.00 | 0.17 | 0.00 | 74 | 1014.0 |
| 20260508010819 | 57 | 356 | 6.0 | 15.0 | 0.00 | 0.17 | 0.00 | 73 | 1014.0 |
| 20260508010317 | 57 | 15 | 7.0 | 15.0 | 0.00 | 0.17 | 0.00 | 73 | 1014.1 |
| 20260508005817 | 57 | 335 | 6.0 | 14.0 | 0.00 | 0.17 | 0.00 | 72 | 1014.2 |
| 20260508005312 | 57 | 337 | 5.0 | 16.0 | 0.00 | 0.17 | 0.00 | 72 | 1014.2 |
| 20260508004812 | 57 | 4 | 7.0 | 22.0 | 0.00 | 0.17 | 0.00 | 73 | 1014.3 |
| 20260508004312 | 57 | 353 | 15.0 | 22.0 | 0.00 | 0.17 | 0.00 | 73 | 1014.3 |
| 20260508003811 | 57 | 13 | 9.0 | 21.0 | 0.00 | 0.17 | 0.00 | 74 | 1014.3 |
| 20260508003308 | 57 | 3 | 7.0 | 16.0 | 0.00 | 0.17 | 0.00 | 75 | 1014.5 |
| 20260508002810 | 57 | 3 | 5.0 | 20.0 | 0.00 | 0.17 | 0.00 | 75 | 1014.4 |
| 20260508002310 | 57 | 323 | 9.0 | 20.0 | 0.00 | 0.17 | 0.00 | 75 | 1014.4 |
| 20260508001811 | 57 | 329 | 9.0 | 16.0 | 0.00 | 0.17 | 0.00 | 76 | 1014.3 |
| 20260508001305 | 57 | 328 | 7.0 | 17.0 | 0.00 | 0.17 | 0.00 | 76 | 1014.2 |
| 20260508000804 | 57 | 332 | 7.0 | 22.0 | 0.00 | 0.18 | 0.00 | 74 | 1014.0 |
| 20260508000305 | 57 | 340 | 12.0 | 22.0 | 0.00 | 0.18 | 0.00 | 74 | 1013.9 |